Location: Bessat
(45.8735°N, 1.9924°E)
Time: 09:14:40
(UTC+00:00)

ATLAS 2AS CENTAUR R/B - Pass Details

Date: 11 May 2021
Orbit: 949 x 1263 km, 63.7° (Epoch: 07 May)

Event Time Altitude Azimuth Distance (km) Brightness Sun altitude
Rises 21:22:39 0° 321° (NW) 4,125 7.5 -18.0°
Reaches altitude 10° 21:25:35 10° 326° (NW) 3,119 6.4 -18.3°
Maximum altitude 21:32:53 54° 43° (NE) 1,338 3.2 -19.0°
Enters shadow 21:37:04 24° 111° (ESE) 2,071 3.8 -19.4°
